[[{"header":{"parameterUnit":"m.s-1","parameterCategory":1,"la1":30.2992,"la2":30.254,"lo1":-89.0895,"lo2":-89.0443,"dy":0.0025,"dx":0.0025,"nx":19,"ny":19,"refTime":"2026-05-19T09:00:00:Z","depth":0,"parameterNumber":2,"parameterNumberName":"U-component_of_WINDS"},"data":[0,0,0,-4.4347,-4.4349,-4.4434,-4.4434,-4.4562,-4.4563,0,0,0,0,0,0,0,0,0,0,0,-4.4334,-4.4335,-4.4347,-4.4349,-4.4434,-4.4434,-4.4561,-4.4563,0,0,0,0,0,0,0,0,0,0,0,-4.4333,-4.4335,-4.4336,-4.435,-4.4434,-4.4434,-4.4561,-4.449,0,0,0,0,0,0,0,0,0,0,-4.4405,-4.4404,-4.4334,-4.4336,-4.435,-4.4434,-4.4434,-4.4487,-4.4495,-4.4532,0,-4.4567,0,-4.4567,-4.4573,-4.4573,0,0,0,-4.434,-4.4397,-4.4409,-4.4336,-4.4351,-4.4433,-4.4393,-4.4491,-4.45,-4.4543,-4.4569,-4.4573,-4.457,-4.4574,-4.4574,-4.4818,-4.4819,0,0,-4.4336,-4.4355,-4.4403,-4.4416,-4.4404,-4.439,-4.4396,-4.4496,-4.4526,-4.457,-4.4576,-4.4572,-4.4575,-4.4576,-4.4816,-4.4818,0,0,0,-4.4328,-4.4352,-4.4361,-4.4411,-4.4425,-4.4393,-4.4399,-4.4522,-4.4523,-4.4577,-4.4573,-4.4575,-4.4577,-4.4814,-4.4817,-4.4911,0,0,0,-4.4325,-4.4348,-4.436,-4.4372,-4.4424,-4.4474,-4.4423,-4.4516,-4.4527,-4.4573,-4.4575,-4.4579,-4.4813,-4.4816,-4.4905,-4.4952,0,0,0,-4.4324,-4.4347,-4.4364,-4.4373,-4.441,-4.4472,-4.4479,-4.4518,-4.4525,-4.4573,-4.4579,-4.4812,-4.4815,-4.4899,-4.4942,-4.5021,0,0,0,-4.4328,-4.4446,-4.4365,-4.4495,-4.441,-4.4531,-4.4478,-4.4567,-4.462,-4.4576,-4.4813,-4.4817,-4.4897,-4.4937,-4.5015,-4.5089,-4.5122,0,0,-4.4487,-4.4465,-4.4541,-4.4471,-4.4611,-4.4516,-4.467,-4.47,-4.4688,-4.4775,-4.4781,-4.4907,-4.4942,-4.502,-4.5304,-4.5331,0,0,0,-4.4597,-4.4651,-4.4684,-4.4736,-4.4763,-4.4789,-4.4794,-4.4806,-4.4879,-4.4737,-4.4957,-4.4977,-4.5022,-4.5056,-4.5079,-4.5116,-4.4834,-4.4834,-4.4833,-4.4846,-4.4825,-4.4948,-4.4938,-4.4989,-4.4994,-4.5034,-4.505,-4.5013,-4.5066,-4.509,-4.5266,-4.5307,-4.5323,-4.5362,-4.5129,-4.513,-4.513,-4.513,-4.5075,-4.5148,-4.5099,-4.5199,-4.5177,-4.5262,-4.5273,-4.5244,-4.532,-4.5245,-4.5283,-4.52,-4.5353,-4.5386,-4.5137,-4.5136,-4.5135,-4.5135,-4.5134,-4.5234,-4.5265,-4.5279,-4.5353,-4.5413,-4.5399,-4.5475,-4.5452,-4.543,-4.5469,-4.5492,-4.5491,-4.5485,-4.5482,-4.5483,-4.5484,-4.5484,-4.5485,-4.5485,-4.5393,-4.5405,-4.5472,-4.5513,-4.5544,-4.5582,-4.5591,-4.5621,-4.5649,-4.5626,-4.5626,-4.5584,-4.5373,-4.5319,-4.5494,-4.5493,-4.5491,-4.549,-4.549,-4.5629,-4.5573,-4.5675,-4.5707,-4.5754,-4.5815,-4.5787,-4.5851,-4.5872,-4.5911,-4.5862,-4.571,-4.5686,-4.5668,-4.5623,-4.5866,-4.5866,-4.5866,-4.5866,-4.5761,-4.5748,-4.5849,-4.5901,-4.595,-4.5935,-4.6053,-4.6063,-4.6064,-4.6076,-4.6039,-4.5979,-4.5961,-4.5947,-4.5923,-4.5881,-4.6184,-4.6185,-4.6185,-4.5905,-4.5896,-4.6,-4.6001,-4.6037,-4.6069,-4.6179,-4.6241,-4.6231,-4.6197,-4.6086,-4.6072,-4.5975,-4.5944,-4.5905,-4.5868,-4.579,0,0]},{"header":{"parameterUnit":"m.s-1","parameterCategory":1,"la1":30.2992,"la2":30.254,"lo1":-89.0895,"lo2":-89.0443,"dy":0.0025,"dx":0.0025,"nx":19,"ny":19,"refTime":"2026-05-19T09:00:00:Z","depth":0,"parameterNumber":3,"parameterNumberName":"V-component_of_WINDS"},"data":[0,0,0,3.0287,3.0289,3.0423,3.0423,3.0559,3.056,0,0,0,0,0,0,0,0,0,0,0,3.0229,3.0229,3.0287,3.029,3.0423,3.0424,3.0559,3.056,0,0,0,0,0,0,0,0,0,0,0,3.0229,3.0229,3.0229,3.029,3.0423,3.0424,3.0558,3.047,0,0,0,0,0,0,0,0,0,0,3.0346,3.0274,3.0229,3.0229,3.0291,3.0422,3.0424,3.0466,3.0475,3.0484,0,3.049,0,3.0527,3.0567,3.0567,0,0,0,3.0303,3.0266,3.032,3.0229,3.0292,3.0422,3.0366,3.0471,3.0482,3.0496,3.0492,3.0498,3.0529,3.0567,3.0568,3.0585,3.0584,0,0,3.0295,3.0242,3.0313,3.0326,3.0306,3.0362,3.037,3.0478,3.0469,3.0492,3.0502,3.0531,3.0568,3.0569,3.0585,3.0585,0,0,0,3.0265,3.0236,3.0288,3.0319,3.0346,3.0365,3.0375,3.0464,3.0486,3.0503,3.0533,3.0569,3.057,3.0586,3.0585,3.0509,0,0,0,3.0262,3.0219,3.0284,3.0252,3.0344,3.0407,3.0358,3.0478,3.0492,3.0532,3.0569,3.0571,3.0587,3.0586,3.0513,3.0482,0,0,0,3.0226,3.0215,3.0228,3.0249,3.0305,3.0407,3.0435,3.0482,3.0509,3.0567,3.0571,3.0587,3.0586,3.0516,3.0487,3.0472,0,0,0,3.0172,3.0155,3.0226,3.0218,3.0303,3.036,3.0435,3.0479,3.0519,3.0569,3.0587,3.0585,3.0517,3.049,3.0475,3.0451,3.0436,0,0,3.0121,3.0147,3.0147,3.0214,3.0245,3.0343,3.0363,3.0448,3.05,3.0553,3.0554,3.0512,3.0487,3.0473,3.0367,3.0355,0,0,0,3.0113,3.0112,3.0132,3.0171,3.0238,3.0294,3.0383,3.0415,3.0464,3.0518,3.0504,3.0491,3.0484,3.0475,3.0464,3.0463,3.0579,3.0579,3.0579,2.9962,3.0034,3.004,3.0128,3.0163,3.0258,3.0293,3.0352,3.0411,3.0406,3.0422,3.035,3.0337,3.033,3.0327,3.0415,3.0414,3.0414,3.0414,2.9894,2.9905,2.9988,3.0024,3.0099,3.0128,3.0218,3.0259,3.0296,3.0343,3.0341,3.0387,3.0314,3.0316,3.0409,3.041,3.041,3.0411,3.0411,2.9804,2.9822,2.9865,2.993,2.9971,3.006,3.0093,3.016,3.0221,3.0219,3.0245,3.0246,3.0256,3.0227,3.0227,3.0226,3.0226,3.0226,3.0226,2.9694,2.9745,2.9767,2.9839,2.9874,2.9928,3.0024,3.0059,3.0114,3.016,3.016,3.022,3.0294,3.0312,3.0222,3.0223,3.0223,3.0224,3.0224,2.96,2.9633,2.9666,2.9702,2.9794,2.9831,2.9917,2.9983,3.0021,3.0035,3.0096,3.014,3.0171,3.018,3.0195,3.0081,3.0081,3.0081,3.0081,2.9525,2.9548,2.9599,2.9651,2.971,2.9791,2.9826,2.99,2.9981,3.0009,3.0035,3.0061,3.0067,3.0094,3.0105,3.012,2.9989,2.9989,2.9989,2.9472,2.9504,2.9522,2.9606,2.9683,2.9748,2.9783,2.9837,2.9936,2.9987,3.0033,3.0037,3.0079,3.0089,3.014,3.0155,3.0184,0,0]}]]